Date String (YYYY-MM-DD hh:mm:ss) UTC,Instrument flags,Ambient pressure (hPa),Sample flow (lpm),Bypass flow (lpm),Sample temperature (°C),Ambient temperature (°C),ASC tube jacket temperature (°C),LED temperature (°C),Box temperature (°C),Sample RH (%),Span deviation,Mass concentration (μg/m³),Mass concentration (μg/m³),Mass concentration (μg/m³)
DateTimeUTC,F1_M11,P_M11,Q1_M11,Q2_M11,T1_M11,T2_M11,T3_M11,T4_M11,T5_M11,U1_M11,ZSPAN_M11,X0_M11,X2_M11,X1_M11
2022-05-14 13:00:00,,0828.1,4.99,0.00,29.1,28.2,00.0,38.1,30.9,08.0,0000.0,0008.64,0003.16,0001.72
2022-05-14 13:01:00,,0828.1,5.01,0.00,29.1,28.2,00.0,38.1,30.8,08.3,0000.0,0008.62,0003.14,0001.69
2022-05-14 13:02:00,,0828.1,5.00,0.00,29.1,28.2,00.0,38.1,30.8,08.3,0000.0,0008.16,0003.13,0001.70
2022-05-14 13:03:00,,0828.2,4.99,0.00,29.1,28.2,00.0,38.1,30.8,07.9,0000.0,0007.41,0003.14,0001.70
2022-05-14 13:04:00,,0828.2,5.01,0.00,29.1,28.2,00.0,38.1,30.8,07.9,0000.0,0007.39,0003.11,0001.69
2022-05-14 13:05:00,,0828.1,5.00,0.00,29.1,28.2,00.0,38.1,30.8,08.0,0000.0,0007.50,0003.11,0001.67
2022-05-14 13:06:00,,0828.1,5.00,0.00,29.1,28.1,00.0,38.1,30.8,08.1,0000.0,0007.66,0003.14,0001.67
2022-05-14 13:07:00,,0828.1,4.99,0.00,29.1,28.1,00.0,38.1,30.8,07.9,0000.0,0007.64,0003.14,0001.65
2022-05-14 13:08:00,,0828.2,5.00,0.00,29.1,28.1,00.0,38.1,30.8,07.9,0000.0,0007.77,0003.12,0001.65
2022-05-14 13:09:00,,0828.1,5.01,0.00,29.0,28.1,00.0,38.0,30.8,07.9,0000.0,0007.91,0003.15,0001.66
2022-05-14 13:10:00,,0828.1,4.98,0.00,29.1,28.1,00.0,38.0,30.8,08.1,0000.0,0008.00,0003.15,0001.67
2022-05-14 13:11:00,,0828.1,5.01,0.00,29.1,28.1,00.0,38.0,30.7,08.1,0000.0,0007.61,0003.15,0001.66
2022-05-14 13:12:00,,0828.1,5.01,0.00,29.1,28.1,00.0,38.0,30.8,08.0,0000.0,0007.81,0003.17,0001.66
2022-05-14 13:13:00,,0828.2,4.99,0.00,29.1,28.1,00.0,38.0,30.7,07.8,0000.0,0007.99,0003.19,0001.65
2022-05-14 13:14:00,,0828.2,5.00,0.00,29.1,28.1,00.0,38.0,30.8,08.1,0000.0,0008.11,0003.19,0001.66
2022-05-14 13:15:00,,0828.1,5.00,0.00,29.1,28.1,00.0,38.0,30.8,08.1,0000.0,0008.06,0003.21,0001.66
2022-05-14 13:16:00,,0828.1,5.00,0.00,29.1,28.1,00.0,38.0,30.8,08.2,0000.0,0007.98,0003.22,0001.68
2022-05-14 13:17:00,,0828.0,5.01,0.00,29.1,28.1,00.0,38.0,30.8,08.2,0000.0,0007.90,0003.23,0001.69
2022-05-14 13:18:00,,0828.1,5.01,0.00,29.1,28.1,00.0,38.0,30.8,07.7,0000.0,0007.86,0003.21,0001.70
2022-05-14 13:19:00,,0828.1,4.98,0.00,29.1,28.1,00.0,38.0,30.9,08.0,0000.0,0007.79,0003.21,0001.69
2022-05-14 13:20:00,,0828.1,5.01,0.00,29.1,28.1,00.0,38.0,30.8,08.3,0000.0,0007.72,0003.19,0001.67
2022-05-14 13:21:00,,0828.2,4.99,0.00,29.1,28.1,00.0,38.0,30.8,08.2,0000.0,0007.58,0003.19,0001.66
2022-05-14 13:22:00,,0828.2,5.00,0.00,29.1,28.1,00.0,38.1,30.9,08.0,0000.0,0007.36,0003.20,0001.65
2022-05-14 13:23:00,,0828.1,5.01,0.00,29.1,28.1,00.0,38.1,30.9,08.0,0000.0,0007.11,0003.20,0001.65
2022-05-14 13:24:00,,0828.1,4.98,0.00,29.1,28.1,00.0,38.1,30.9,07.8,0000.0,0006.90,0003.18,0001.65
2022-05-14 13:25:00,,0828.1,5.00,0.00,29.2,28.1,00.0,38.1,30.9,07.9,0000.0,0006.36,0003.15,0001.64
2022-05-14 13:26:00,,0828.1,5.01,0.00,29.2,28.1,00.0,38.1,30.8,07.8,0000.0,0006.49,0003.13,0001.65
2022-05-14 13:27:00,,0828.1,5.01,0.00,29.2,28.0,00.0,38.1,30.8,07.8,0000.0,0007.89,0003.17,0001.65
2022-05-14 13:28:00,,0828.1,4.99,0.00,29.2,28.0,00.0,38.1,30.9,08.1,0000.0,0008.07,0003.23,0001.64
2022-05-14 13:29:00,,0828.4,4.99,0.00,29.2,28.0,00.0,38.1,30.9,08.2,0000.0,0008.11,0003.24,0001.65
2022-05-14 13:30:00,,0828.2,5.02,0.00,29.2,28.0,00.0,38.1,30.9,08.4,0000.0,0008.10,0003.25,0001.67
2022-05-14 13:31:00,,0828.3,5.01,0.00,29.2,28.1,00.0,38.1,30.9,08.3,0000.0,0008.31,0003.25,0001.68
2022-05-14 13:32:00,,0828.4,4.99,0.00,29.2,28.1,00.0,38.1,30.9,08.5,0000.0,0008.69,0003.27,0001.69
2022-05-14 13:33:00,,0828.3,5.01,0.00,29.2,28.1,00.0,38.1,30.9,08.7,0000.0,0009.11,0003.27,0001.70
2022-05-14 13:34:00,,0828.2,5.00,0.00,29.2,28.1,00.0,38.1,30.9,09.3,0000.0,0009.08,0003.27,0001.71
2022-05-14 13:35:00,,0828.2,5.00,0.00,29.2,28.2,00.0,38.1,31.0,09.2,0000.0,0009.14,0003.29,0001.73
2022-05-14 13:36:00,,0828.3,4.99,0.00,29.3,28.2,00.0,38.1,31.0,09.5,0000.0,0009.21,0003.31,0001.74
2022-05-14 13:37:00,,0828.3,5.00,0.00,29.3,28.2,00.0,38.2,31.0,08.9,0000.0,0009.13,0003.29,0001.73
2022-05-14 13:38:00,,0828.3,5.00,0.00,29.3,28.3,00.0,38.2,31.0,08.6,0000.0,0008.37,0003.30,0001.72
2022-05-14 13:39:00,,0828.3,5.01,0.00,29.3,28.3,00.0,38.2,31.0,08.4,0000.0,0008.37,0003.29,0001.73
2022-05-14 13:40:00,,0828.3,4.99,0.00,29.3,28.3,00.0,38.2,31.0,08.5,0000.0,0008.32,0003.27,0001.72
2022-05-14 13:41:00,,0828.3,5.01,0.00,29.3,28.3,00.0,38.2,31.0,10.0,0000.0,0008.45,0003.31,0001.73
2022-05-14 13:42:00,,0828.3,5.00,0.00,29.3,28.3,00.0,38.2,31.1,09.9,0000.0,0008.38,0003.33,0001.75
2022-05-14 13:43:00,,0828.3,4.99,0.00,29.3,28.3,00.0,38.2,31.1,10.3,0000.0,0008.79,0003.37,0001.78
2022-05-14 13:44:00,,0828.3,5.00,0.00,29.4,28.4,00.0,38.2,31.1,10.2,0000.0,0008.34,0003.37,0001.79
2022-05-14 13:45:00,,0828.3,5.00,0.00,29.4,28.4,00.0,38.2,31.1,10.0,0000.0,0008.19,0003.35,0001.80
2022-05-14 13:46:00,,0828.3,4.99,0.00,29.4,28.4,00.0,38.2,31.2,10.2,0000.0,0008.07,0003.32,0001.80
2022-05-14 13:47:00,,0828.3,5.00,0.00,29.4,28.5,00.0,38.3,31.2,10.1,0000.0,0009.54,0003.32,0001.80
2022-05-14 13:48:00,,0828.3,5.01,0.00,29.4,28.5,00.0,38.3,31.2,10.1,0000.0,0009.73,0003.36,0001.84
2022-05-14 13:49:00,,0828.4,5.01,0.00,29.4,28.5,00.0,38.3,31.2,09.7,0000.0,0009.57,0003.37,0001.86
2022-05-14 13:50:00,,0828.4,4.99,0.00,29.5,28.5,00.0,38.3,31.2,10.4,0000.0,0009.38,0003.33,0001.87
2022-05-14 13:51:00,,0828.4,5.01,0.00,29.5,28.6,00.0,38.3,31.2,10.2,0000.0,0009.68,0003.32,0001.89
2022-05-14 13:52:00,,0828.4,5.00,0.00,29.5,28.6,00.0,38.3,31.2,09.8,0000.0,0010.87,0003.28,0001.88
2022-05-14 13:53:00,,0828.4,5.01,0.00,29.5,28.6,00.0,38.3,31.2,09.5,0000.0,0010.72,0003.26,0001.87
2022-05-14 13:54:00,,0828.4,4.99,0.00,29.5,28.6,00.0,38.3,31.3,08.6,0000.0,0010.00,0003.22,0001.84
2022-05-14 13:55:00,,0828.4,5.00,0.00,29.5,28.6,00.0,38.4,31.3,08.3,0000.0,0009.96,0003.20,0001.85
2022-05-14 13:56:00,,0828.4,5.00,0.00,29.5,28.6,00.0,38.4,31.3,07.9,0000.0,0010.04,0003.22,0001.83
2022-05-14 13:57:00,,0828.4,5.00,0.00,29.5,28.6,00.0,38.4,31.3,07.9,0000.0,0010.19,0003.26,0001.83
2022-05-14 13:58:00,,0828.4,5.01,0.00,29.5,28.5,00.0,38.4,31.2,08.0,0000.0,0009.11,0003.26,0001.83
2022-05-14 13:59:00,,0828.4,4.98,0.00,29.5,28.5,00.0,38.4,31.2,08.0,0000.0,0008.83,0003.29,0001.84
